Location: Arrien
(43.3167°N, 0.1500°W)
Time: 22:07:33
(UTC+00:00)

SL-16 R/B - Pass Details

Date: 15 October 2021
Orbit: 842 x 846 km, 71.0° (Epoch: 04 December)

Event Time Altitude Azimuth Distance (km) Brightness Sun altitude
Rises 19:58:59 0° 204° (SSW) 3,385 5.4 -29.9°
Reaches altitude 10° 20:01:25 10° 205° (SSW) 2,454 4.7 -30.3°
Enters shadow 20:02:58 20° 205° (SSW) 1,874 4.0 -30.6°
